EHI
0 0 0 0 0 0 1 0 0 0 0 0 0 0 0 0 0 0 0 0 0 0 0 0 0 0 0 0 0 0 0 0 0 0 0 0 0 0 0 0 0 0 0
0 0 0 0 0 1 1 1 1 0 0 0 0 0 0 0 0 0 0 0 0 0 0 0 0 0 0 0 0 0 0 0 0 0 0 0 0 0 0 0 0 0 0
0 0 0 0 0 1 2 3 2 1 0 0 0 0 0 0 0 0 0 0 0 0 0 0 0 0 0 0 0 0 0 0 0 0 0 0 0 0 0 0 0 0 0
0 0 0 0 0 1 2 3 3 1 0 0 0 0 0 0 0 0 0 0 0 0 0 0 0 0 0 0 0 0 0 0 0 0 0 0 0 0 0 0 0 0 0
0 0 1 1 1 1 3 3 3 2 1 0 0 0 0 0 0 0 0 0 0 0 0 0 0 0 0 0 0 0 0 0 0 0 0 0 0 0 0 0 0 0 0
0 0 1 2 2 3 3 3 3 3 1 1 0 0 0 0 0 0 0 0 0 0 0 0 0 0 0 0 0 0 0 0 0 0 0 0 0 0 0 0 0 0 0
0 0 0 1 2 3 3 3 3 3 3 2 1 0 0 0 0 0 0 0 0 0 0 0 0 0 0 0 0 0 0 0 0 0 0 0 0 0 0 0 0 0 0
0 0 0 0 1 2 3 3 3 3 3 3 2 1 1 0 0 0 0 0 0 0 0 0 0 0 0 0 0 0 0 0 0 0 0 0 0 0 0 0 0 0 0
0 0 0 0 0 1 2 3 3 3 3 3 3 3 2 1 0 0 0 0 0 0 0 0 0 0 0 0 0 0 0 0 0 0 0 0 0 0 0 0 0 0 0
0 0 0 0 0 0 1 2 3 3 2 3 3 3 3 2 1 0 0 0 0 0 0 0 0 0 0 0 0 0 0 0 0 0 0 0 0 0 0 0 0 0 0
0 0 0 0 0 0 0 1 2 2 1 2 3 3 3 2 1 0 0 0 0 0 0 0 0 0 0 0 0 0 0 0 0 0 0 0 0 0 0 0 0 0 0
0 0 0 0 0 0 0 1 2 2 1 2 3 3 2 1 0 0 0 0 0 0 0 0 0 0 0 0 0 0 0 0 0 0 0 0 0 0 0 0 0 0 0
0 0 0 0 0 0 0 1 1 1 2 3 3 3 1 0 0 0 0 0 0 0 0 0 0 0 0 0 0 0 0 0 0 0 0 0 0 0 0 0 0 0 0
0 0 0 0 0 0 0 0 0 0 1 2 2 2 1 0 0 0 0 0 0 0 0 0 0 0 0 0 0 0 0 0 0 0 0 0 0 0 0 0 0 0 0
0 0 0 0 0 0 0 0 0 0 0 1 1 1 0 0 0 0 0 0 0 0 0 0 0 0 0 0 0 0 0 0 0 0 0 0 0 0 0 0 0 0 0
0 0 0 0 0 0 0 0 0 0 0 0 0 0 0 0 0 0 0 0 0 0 0 0 0 0 0 0 0 0 0 0 0 0 0 0 0 0 0 0 0 0 0
0 0 0 0 0 0 0 0 0 0 0 0 0 0 0 0 0 0 0 0 0 0 0 0 0 0 0 0 0 0 0 0 0 0 0 0 0 0 0 0 0 0 0
0 0 0 0 0 0 0 0 0 0 0 0 0 0 0 0 0 0 0 0 0 0 0 0 0 0 0 0 0 0 0 0 0 0 0 0 0 0 0 0 0 0 0
0 0 0 0 0 0 0 0 0 0 0 0 0 0 0 0 0 0 0 0 0 0 0 0 0 0 0 0 0 0 0 0 0 0 0 0 0 0 0 0 0 0 0
0 0 0 0 0 0 0 0 0 0 0 0 0 0 0 0 0 0 0 0 0 0 0 0 0 0 0 0 0 0 0 0 0 0 0 0 0 0 0 0 0 0 0
0 0 0 0 0 0 0 0 0 0 0 0 0 0 0 0 0 0 0 0 0 0 0 0 0 0 0 0 0 0 0 0 0 0 0 0 0 0 0 0 0 0 0
0 0 0 0 0 0 0 0 0 0 0 0 0 0 0 0 0 0 0 0 0 0 0 0 0 0 0 0 0 0 0 0 0 0 0 0 0 0 0 0 0 0 0
0 0 0 0 0 0 0 0 0 0 0 0 0 0 0 0 0 0 0 0 0 0 0 0 0 0 0 0 0 0 0 0 0 0 0 0 0 0 0 0 0 0 0
0 0 0 0 0 0 0 0 0 0 0 0 0 0 0 0 0 0 0 0 0 0 0 0 0 0 0 0 0 0 0 0 0 0 0 0 0 0 0 0 0 0 0
0 0 0 0 0 0 0 0 0 0 0 0 0 0 0 0 0 0 0 0 0 0 0 0 0 0 0 0 0 0 0 0 0 0 0 0 0 0 0 0 0 0 0
0 0 0 0 0 0 0 0 0 0 0 0 0 0 0 0 0 0 0 0 0 0 0 0 0 0 0 0 0 0 0 0 0 0 0 0 0 0 0 0 0 0 0
Wind_Speed
9 8 7 6 6 6 5 4 4 3 4 4 3 2 2 2 1 1 0 0 0 0 0 1 1 2 2 2 2 2 2 2 3 2 2 3 4 4 4 4 4 3 3
8 8 7 6 7 6 5 5 4 4 4 3 3 3 2 2 2 1 1 1 1 1 1 1 1 0 1 2 2 2 2 2 3 3 3 3 4 4 4 4 4 3 3
8 8 8 7 7 6 5 5 5 4 4 4 4 3 3 3 2 2 2 2 1 1 1 1 1 1 1 1 2 2 2 2 2 3 3 3 3 3 4 4 4 3 3
8 8 8 7 7 6 5 5 5 5 4 4 4 4 3 3 3 3 2 2 2 1 1 2 2 2 2 2 2 2 2 3 3 3 3 3 3 3 4 4 3 3 4
9 9 8 7 7 6 6 6 5 4 4 4 4 4 4 3 3 3 3 3 3 2 2 2 2 2 4 4 4 3 3 3 3 3 3 3 3 3 4 4 4 4 3
9 9 7 7 7 7 6 6 5 5 5 4 5 5 4 3 2 2 5 4 4 3 3 3 2 3 2 3 4 5 6 5 5 4 4 4 5 4 4 5 5 5 4
8 8 7 7 7 7 7 6 6 6 5 5 6 5 5 4 5 5 6 6 5 4 4 4 3 3 4 4 4 7 6 6 7 7 6 6 6 5 6 6 6 6 6
8 8 7 8 8 7 7 6 6 6 5 5 5 5 4 4 5 6 7 7 6 5 5 5 5 5 4 5 6 5 5 4 5 7 6 6 6 6 6 7 7 7 7
7 7 8 8 7 7 7 7 6 5 5 6 5 5 5 5 6 6 7 6 5 6 5 6 6 6 2 5 8 7 7 5 4 6 7 7 7 8 8 7 6 7 7
7 6 6 7 7 7 7 6 5 5 5 5 5 5 5 5 5 6 8 5 6 5 5 5 4 6 4 6 8 8 8 7 7 6 8 10 10 9 10 8 7 7 7
5 5 5 6 6 6 5 5 5 5 4 5 5 4 5 4 5 6 7 6 5 5 5 5 3 4 6 7 10 9 8 9 9 8 8 7 7 6 6 7 7 7 8
5 5 5 5 5 4 5 4 5 5 5 5 5 4 4 4 4 5 6 7 7 7 6 5 3 3 6 9 8 7 9 10 8 7 7 7 7 6 6 7 8 9 9
5 5 4 5 4 4 5 5 4 4 4 4 3 3 3 3 3 5 7 8 8 7 6 5 6 6 7 8 9 9 10 8 7 7 8 7 7 7 7 7 9 9 10
5 4 4 4 4 4 3 3 3 3 3 3 3 3 3 2 2 2 3 4 6 7 6 5 7 8 8 8 8 7 7 6 7 7 8 7 7 7 7 7 7 7 8
4 4 4 3 3 3 3 2 3 2 2 3 2 3 3 3 1 2 4 4 4 4 5 5 6 5 6 5 6 6 6 6 7 7 7 7 7 7 7 7 7 7 8
4 3 3 3 3 3 3 2 2 0 1 1 2 3 2 2 3 2 4 5 5 4 5 6 5 5 6 6 6 6 6 6 6 7 7 7 8 8 8 7 7 8 9
4 3 3 2 3 3 3 3 2 2 2 1 2 2 3 3 2 2 3 4 4 5 5 5 5 6 6 6 6 6 6 6 6 7 7 8 8 8 8 8 8 8 9
3 3 2 2 2 2 2 2 2 2 2 2 2 2 2 2 2 2 3 3 3 4 4 5 5 5 6 6 6 6 6 6 6 7 7 7 8 8 8 9 9 10 10
3 2 2 2 2 2 2 2 2 2 2 2 1 1 2 3 3 3 3 3 4 4 4 4 5 5 5 6 6 6 7 7 7 7 7 8 8 8 8 9 9 10 10
2 2 1 2 2 2 2 2 2 2 2 2 2 1 1 2 2 2 3 3 4 4 4 5 5 5 6 6 6 6 6 7 7 7 7 7 7 8 9 10 10 10 10
2 3 2 2 2 1 1 2 2 2 2 2 2 1 2 3 3 4 3 3 4 4 5 5 5 5 5 5 6 7 8 7 7 7 7 7 8 8 8 8 9 10 10
2 2 2 2 2 1 1 2 2 3 3 3 2 1 2 4 4 4 4 4 4 4 5 5 5 5 5 5 6 7 7 8 7 8 8 8 8 9 9 9 9 9 10
2 2 2 1 1 1 2 2 2 3 3 3 3 3 3 3 4 4 4 4 4 5 5 5 6 6 5 6 6 7 8 8 8 8 9 9 9 9 9 10 11 11 11
2 2 1 1 1 1 1 2 2 3 3 3 3 3 3 4 4 5 5 5 5 5 5 5 6 8 10 8 7 7 7 8 9 9 12 11 11 10 10 10 11 12 11
1 1 1 1 1 1 2 2 2 3 3 3 4 4 4 4 4 4 5 5 6 6 7 7 6 7 10 11 10 9 8 8 9 10 10 10 11 12 11 12 11 12 12
1 1 1 1 1 2 2 2 3 3 4 4 4 4 4 4 4 5 5 5 5 6 7 7 8 10 11 10 11 10 9 10 10 11 11 10 11 10 11 10 13 12 13
Wind_Direction
192 191 189 189 191 191 196 193 195 194 190 195 195 201 190 184 172 153 203 160 272 94 265 351 353 352 337 334 326 318 316 311 299 315 337 343 336 340 346 343 340 338 40
189 190 191 187 191 196 194 197 197 194 197 202 197 204 200 208 201 196 209 216 256 302 326 318 325 11 334 328 323 317 322 309 300 311 318 333 334 340 336 327 329 338 345
183 187 188 189 191 195 197 194 197 197 193 193 198 207 206 212 214 215 222 233 243 273 298 301 310 308 298 327 305 314 315 314 303 292 309 325 311 322 318 316 320 323 319
181 188 193 193 192 194 192 192 196 198 198 200 200 206 212 212 216 219 227 237 241 249 268 284 294 299 306 307 299 305 305 299 295 291 297 302 304 311 304 313 313 318 316
185 192 195 195 192 192 187 191 191 194 206 207 206 207 212 218 223 238 236 243 245 245 248 254 282 330 341 323 314 308 299 292 293 296 299 300 307 310 317 315 313 308 306
192 195 191 193 190 193 193 193 190 193 205 203 210 211 213 212 177 250 268 251 251 251 255 255 231 226 233 248 281 301 307 300 302 295 293 300 310 314 317 306 307 307 306
193 192 187 190 193 198 194 193 195 198 201 207 213 215 219 202 191 216 246 260 256 262 266 262 260 254 251 252 232 229 240 253 271 285 292 300 304 311 305 303 306 305 303
190 190 188 190 193 195 196 198 205 205 199 207 213 216 221 210 198 216 233 246 250 252 257 264 261 259 269 284 276 270 271 263 263 268 282 292 300 304 297 295 297 291 286
189 192 189 191 191 192 195 200 204 205 204 208 212 215 218 211 197 213 234 243 248 253 255 262 268 265 266 279 273 273 272 267 241 248 274 280 286 284 284 280 283 285 287
191 192 188 189 190 193 197 198 197 203 210 212 214 221 225 230 189 210 239 247 252 256 257 254 248 270 273 267 269 273 276 281 282 263 250 245 253 247 245 262 277 282 288
184 184 182 183 189 193 194 192 193 197 206 213 215 223 232 239 199 206 233 256 260 263 262 261 250 223 256 263 270 275 286 293 286 283 280 277 272 270 263 259 262 269 278
169 174 178 177 176 181 185 190 193 194 203 212 220 222 229 226 226 208 224 249 276 272 272 272 271 230 253 262 263 273 279 277 274 276 276 277 277 276 274 275 271 267 266
162 169 173 170 171 177 182 185 188 194 209 216 219 228 231 235 211 205 224 239 253 264 276 290 288 270 260 254 248 258 263 263 269 273 276 278 280 283 284 279 276 273 272
162 165 167 167 165 169 178 188 191 195 210 220 225 235 242 239 250 247 246 242 239 249 262 261 249 252 255 267 266 251 254 265 273 273 277 280 281 279 274 274 275 275 273
163 161 164 161 160 165 166 185 205 197 230 239 239 246 256 259 291 310 284 271 272 279 284 271 268 266 265 264 265 267 268 266 263 268 274 278 277 276 275 274 274 275 273
164 159 161 160 163 169 168 160 78 5 112 244 304 296 277 309 330 291 281 284 281 273 270 268 271 273 276 279 280 278 274 274 277 277 277 278 278 279 279 277 273 272 274
164 159 159 167 168 177 185 197 189 169 156 183 237 276 293 312 305 283 281 277 261 246 256 269 275 279 282 283 284 285 285 285 284 279 278 279 280 281 280 280 278 276 275
158 145 152 162 178 187 194 207 222 226 215 204 190 211 246 269 279 278 266 261 256 248 269 279 285 289 290 288 287 287 287 286 283 282 282 282 282 281 279 278 277 278 280
156 154 157 161 177 186 196 210 225 240 245 246 239 181 198 231 234 234 237 264 280 282 284 285 287 289 290 290 291 291 290 289 288 287 286 286 285 284 283 282 281 280 278
142 121 153 168 173 185 202 221 233 242 250 257 265 289 285 267 270 257 250 272 280 284 286 287 289 292 294 294 293 290 289 289 290 286 286 284 283 282 282 282 283 282 278
148 143 165 187 190 206 224 239 247 251 257 265 276 309 302 276 276 280 279 277 281 285 287 289 290 291 291 292 291 289 289 290 289 288 288 287 286 284 284 283 283 282 283
158 163 179 197 209 221 244 249 257 260 260 267 280 264 229 265 279 282 283 282 283 284 287 287 286 288 290 291 293 292 290 290 290 291 290 289 288 286 285 283 282 283 281
172 177 184 196 210 207 241 256 267 271 267 271 279 284 272 273 277 281 284 287 288 287 286 285 286 288 290 291 291 290 289 289 291 293 292 290 288 287 286 285 284 285 283
172 182 196 205 224 243 259 270 271 278 280 280 282 282 281 282 284 287 289 291 291 290 289 289 289 291 293 294 291 288 291 298 299 293 290 288 287 286 284 283 283 284 284
179 190 212 232 240 253 262 270 279 287 289 286 286 289 290 289 289 292 295 297 298 297 298 296 292 291 292 293 294 295 302 301 296 295 292 287 284 283 282 283 283 285 284
192 208 234 252 264 271 275 281 291 299 297 297 297 296 295 295 298 300 302 301 300 298 298 295 294 296 296 295 297 302 300 295 292 289 287 285 283 281 283 282 283 282 282